| time (UTC) | temp F | wind direction | speed MPH | gust MPH | rain 1hr in | rain 24hr in | rain mn in | humidity % | barometer mb |
| 20260901192241 | 99 | 155 | 7.0 | 13.0 | 0.00 | 0.00 | 0.00 | 49 | 1013.5 |
| 20260901191726 | 99 | 169 | 9.0 | 13.0 | 0.00 | 0.00 | 0.00 | 48 | 1013.5 |
| 20260901191539 | 98 | 178 | 6.0 | 13.0 | 0.00 | 0.00 | 0.00 | 48 | 1010.8 |
| 20260901191239 | 98 | 192 | 7.0 | 13.0 | 0.00 | 0.00 | 0.00 | 47 | 1013.7 |
| 20260901190751 | 98 | 148 | 6.0 | 15.0 | 0.00 | 0.00 | 0.00 | 48 | 1013.6 |
| 20260901190221 | 98 | 175 | 8.0 | 15.0 | 0.00 | 0.00 | 0.00 | 48 | 1013.6 |
| 20260901190059 | 97 | 166 | 7.0 | 15.0 | 0.00 | 0.00 | 0.00 | 48 | 1010.8 |
| 20260901185728 | 98 | 178 | 9.0 | 15.0 | 0.00 | 0.00 | 0.00 | 46 | 1013.5 |
| 20260901185240 | 98 | 188 | 11.0 | 14.0 | 0.00 | 0.00 | 0.00 | 46 | 1013.4 |
| 20260901184724 | 98 | 132 | 10.0 | 14.0 | 0.00 | 0.00 | 0.00 | 46 | 1013.4 |
| 20260901184503 | 97 | 151 | 9.0 | 14.0 | 0.00 | 0.00 | 0.00 | 48 | 1010.8 |
| 20260901184236 | 98 | 169 | 8.0 | 16.0 | 0.00 | 0.00 | 0.00 | 48 | 1013.6 |
| 20260901183748 | 98 | 202 | 9.0 | 15.0 | 0.00 | 0.00 | 0.00 | 48 | 1013.6 |
| 20260901183231 | 98 | 174 | 10.0 | 14.0 | 0.00 | 0.00 | 0.00 | 47 | 1013.7 |
| 20260901183005 | 97 | 186 | 8.0 | 14.0 | 0.00 | 0.00 | 0.00 | 46 | 1010.9 |
| 20260901182743 | 98 | 183 | 9.0 | 15.0 | 0.00 | 0.00 | 0.00 | 47 | 1013.7 |
| 20260901182228 | 98 | 161 | 6.0 | 15.0 | 0.00 | 0.00 | 0.00 | 47 | 1013.8 |
| 20260901181736 | 97 | 160 | 6.0 | 11.0 | 0.00 | 0.00 | 0.00 | 47 | 1013.9 |
| 20260901181502 | 97 | 202 | 7.0 | 11.0 | 0.00 | 0.00 | 0.00 | 46 | 1011.1 |
| 20260901181249 | 97 | 163 | 8.0 | 11.0 | 0.00 | 0.00 | 0.00 | 48 | 1014.0 |
| 20260901180740 | 98 | 194 | 5.0 | 11.0 | 0.00 | 0.00 | 0.00 | 47 | 1014.0 |
| 20260901180223 | 97 | 161 | 5.0 | 12.0 | 0.00 | 0.00 | 0.00 | 47 | 1014.1 |
| 20260901180041 | 97 | 204 | 7.0 | 12.0 | 0.00 | 0.00 | 0.00 | 48 | 1011.3 |
| 20260901175734 | 97 | 198 | 6.0 | 12.0 | 0.00 | 0.00 | 0.00 | 48 | 1014.2 |
| 20260901175306 | 97 | 163 | 5.0 | 9.0 | 0.00 | 0.00 | 0.00 | 50 | 1014.2 |
| 20260901174727 | 96 | 156 | 8.0 | 10.0 | 0.00 | 0.00 | 0.00 | 47 | 1014.2 |
| 20260901174535 | 96 | 207 | 6.0 | 9.0 | 0.00 | 0.00 | 0.00 | 50 | 1011.4 |
| 20260901174237 | 96 | 159 | 5.0 | 11.0 | 0.00 | 0.00 | 0.00 | 49 | 1014.2 |
| 20260901173806 | 96 | 161 | 6.0 | 10.0 | 0.00 | 0.00 | 0.00 | 51 | 1014.2 |
| 20260901173229 | 95 | 207 | 4.0 | 9.0 | 0.00 | 0.00 | 0.00 | 52 | 1014.3 |
| 20260901173101 | 95 | 200 | 4.0 | 10.0 | 0.00 | 0.00 | 0.00 | 52 | 1011.5 |
| 20260901172739 | 95 | 227 | 4.0 | 8.0 | 0.00 | 0.00 | 0.00 | 52 | 1014.3 |
| 20260901172223 | 94 | 171 | 5.0 | 14.0 | 0.00 | 0.00 | 0.00 | 52 | 1014.4 |
| 20260901171735 | 94 | 185 | 7.0 | 14.0 | 0.00 | 0.00 | 0.00 | 50 | 1014.4 |
| 20260901171605 | 94 | 198 | 7.0 | 14.0 | 0.00 | 0.00 | 0.00 | 51 | 1011.7 |
| 20260901171248 | 94 | 190 | 5.0 | 11.0 | 0.00 | 0.00 | 0.00 | 52 | 1014.4 |
| 20260901170732 | 93 | 207 | 6.0 | 12.0 | 0.00 | 0.00 | 0.00 | 52 | 1014.4 |
| 20260901170236 | 93 | 209 | 6.0 | 12.0 | 0.00 | 0.00 | 0.00 | 52 | 1014.4 |
| 20260901170055 | 93 | 199 | 8.0 | 12.0 | 0.00 | 0.00 | 0.00 | 52 | 1011.7 |
| 20260901165749 | 93 | 163 | 4.0 | 12.0 | 0.00 | 0.00 | 0.00 | 52 | 1014.4 |
| 20260901165233 | 93 | 168 | 7.0 | 12.0 | 0.00 | 0.00 | 0.00 | 50 | 1014.5 |
| 20260901164736 | 93 | 192 | 6.0 | 10.0 | 0.00 | 0.00 | 0.00 | 53 | 1014.5 |
| 20260901164559 | 92 | 206 | 6.0 | 10.0 | 0.00 | 0.00 | 0.00 | 52 | 1011.8 |
| 20260901164248 | 92 | 196 | 5.0 | 10.0 | 0.00 | 0.00 | 0.00 | 52 | 1014.6 |
| 20260901163737 | 92 | 170 | 7.0 | 15.0 | 0.00 | 0.00 | 0.00 | 53 | 1014.6 |
| 20260901163221 | 92 | 144 | 9.0 | 15.0 | 0.00 | 0.00 | 0.00 | 54 | 1014.6 |
| 20260901163040 | 91 | 157 | 7.0 | 12.0 | 0.00 | 0.00 | 0.00 | 54 | 1012.0 |
| 20260901162729 | 92 | 150 | 8.0 | 12.0 | 0.00 | 0.00 | 0.00 | 53 | 1014.7 |
| 20260901162239 | 91 | 171 | 7.0 | 10.0 | 0.00 | 0.00 | 0.00 | 56 | 1014.7 |
| 20260901161722 | 91 | 198 | 4.0 | 8.0 | 0.00 | 0.00 | 0.00 | 54 | 1014.8 |
| 20260901161543 | 90 | 202 | 4.0 | 8.0 | 0.00 | 0.00 | 0.00 | 56 | 1012.1 |
| 20260901161234 | 91 | 200 | 5.0 | 8.0 | 0.00 | 0.00 | 0.00 | 57 | 1014.8 |
| 20260901160745 | 90 | 194 | 5.0 | 10.0 | 0.00 | 0.00 | 0.00 | 56 | 1014.8 |
| 20260901160237 | 90 | 182 | 6.0 | 10.0 | 0.00 | 0.00 | 0.00 | 60 | 1014.8 |
| 20260901160021 | 89 | 174 | 6.0 | 8.0 | 0.00 | 0.00 | 0.00 | 59 | 1012.1 |
| 20260901155749 | 89 | 144 | 4.0 | 7.0 | 0.00 | 0.00 | 0.00 | 60 | 1014.7 |
| 20260901155237 | 88 | 205 | 5.0 | 8.0 | 0.00 | 0.00 | 0.00 | 59 | 1014.5 |
| 20260901154724 | 88 | 213 | 5.0 | 8.0 | 0.00 | 0.00 | 0.00 | 58 | 1014.5 |
| 20260901154504 | 88 | 209 | 5.0 | 8.0 | 0.00 | 0.00 | 0.00 | 57 | 1011.8 |
| 20260901154238 | 89 | 175 | 5.0 | 8.0 | 0.00 | 0.00 | 0.00 | 58 | 1014.5 |
| 20260901153721 | 88 | 190 | 5.0 | 8.0 | 0.00 | 0.00 | 0.00 | 59 | 1014.7 |
| 20260901153231 | 88 | 160 | 5.0 | 8.0 | 0.00 | 0.00 | 0.00 | 58 | 1014.5 |
| 20260901153008 | 88 | 171 | 4.0 | 7.0 | 0.00 | 0.00 | 0.00 | 61 | 1011.9 |
| 20260901152742 | 88 | 172 | 4.0 | 6.0 | 0.00 | 0.00 | 0.00 | 61 | 1014.5 |
| 20260901152225 | 87 | 202 | 4.0 | 5.0 | 0.00 | 0.00 | 0.00 | 59 | 1014.4 |
| 20260901151738 | 87 | 202 | 3.0 | 5.0 | 0.00 | 0.00 | 0.00 | 61 | 1014.5 |
| 20260901151509 | 86 | 159 | 2.0 | 5.0 | 0.00 | 0.00 | 0.00 | 61 | 1011.8 |
| 20260901151248 | 86 | 224 | 3.0 | 5.0 | 0.00 | 0.00 | 0.00 | 60 | 1014.5 |
| 20260901150738 | 86 | 213 | 2.0 | 6.0 | 0.00 | 0.00 | 0.00 | 62 | 1014.5 |
| 20260901150222 | 86 | 213 | 4.0 | 7.0 | 0.00 | 0.00 | 0.00 | 61 | 1014.5 |
| 20260901150055 | 86 | 213 | 4.0 | 7.0 | 0.00 | 0.00 | 0.00 | 60 | 1011.8 |
| 20260901145736 | 86 | 135 | 5.0 | 8.0 | 0.00 | 0.00 | 0.00 | 60 | 1014.5 |
| 20260901145246 | 86 | 194 | 3.0 | 8.0 | 0.00 | 0.00 | 0.00 | 61 | 1014.5 |
| 20260901144730 | 86 | 194 | 3.0 | 7.0 | 0.00 | 0.00 | 0.00 | 62 | 1014.6 |
| 20260901144530 | 85 | 194 | 4.0 | 7.0 | 0.00 | 0.00 | 0.00 | 60 | 1012.0 |
| 20260901144243 | 85 | 170 | 5.0 | 7.0 | 0.00 | 0.00 | 0.00 | 63 | 1014.6 |
| 20260901143725 | 85 | 196 | 4.0 | 7.0 | 0.00 | 0.00 | 0.00 | 63 | 1014.5 |
| 20260901143234 | 84 | 199 | 4.0 | 9.0 | 0.00 | 0.00 | 0.00 | 63 | 1014.5 |
| 20260901143034 | 84 | 203 | 4.0 | 9.0 | 0.00 | 0.00 | 0.00 | 62 | 1012.0 |
| 20260901142749 | 84 | 181 | 5.0 | 9.0 | 0.00 | 0.00 | 0.00 | 65 | 1014.7 |
| 20260901142230 | 84 | 207 | 5.0 | 7.0 | 0.00 | 0.00 | 0.00 | 63 | 1014.8 |
| 20260901141740 | 84 | 197 | 4.0 | 8.0 | 0.00 | 0.00 | 0.00 | 64 | 1014.8 |
| 20260901141534 | 83 | 201 | 3.0 | 8.0 | 0.00 | 0.00 | 0.00 | 65 | 1012.2 |
| 20260901141224 | 83 | 204 | 4.0 | 8.0 | 0.00 | 0.00 | 0.00 | 65 | 1014.8 |
| 20260901140735 | 83 | 156 | 3.0 | 6.0 | 0.00 | 0.00 | 0.00 | 68 | 1014.8 |
| 20260901140247 | 83 | 171 | 4.0 | 6.0 | 0.00 | 0.00 | 0.00 | 68 | 1014.7 |
| 20260901140035 | 82 | 195 | 2.0 | 6.0 | 0.00 | 0.00 | 0.00 | 67 | 1012.1 |
| 20260901135729 | 82 | 170 | 4.0 | 7.0 | 0.00 | 0.00 | 0.00 | 67 | 1014.7 |
| 20260901135237 | 82 | 174 | 4.0 | 7.0 | 0.00 | 0.00 | 0.00 | 70 | 1014.8 |
| 20260901134748 | 81 | 155 | 5.0 | 7.0 | 0.00 | 0.00 | 0.00 | 70 | 1014.8 |
| 20260901134536 | 81 | 171 | 5.0 | 8.0 | 0.00 | 0.00 | 0.00 | 71 | 1012.2 |
| 20260901134233 | 81 | 162 | 3.0 | 7.0 | 0.00 | 0.00 | 0.00 | 72 | 1014.8 |
| 20260901133742 | 80 | 163 | 4.0 | 7.0 | 0.00 | 0.00 | 0.00 | 72 | 1014.8 |
| 20260901133227 | 80 | 144 | 4.0 | 7.0 | 0.00 | 0.00 | 0.00 | 74 | 1014.8 |
| 20260901133028 | 79 | 165 | 4.0 | 7.0 | 0.00 | 0.00 | 0.00 | 75 | 1012.2 |
| 20260901132742 | 79 | 161 | 4.0 | 7.0 | 0.00 | 0.00 | 0.00 | 75 | 1014.8 |
| 20260901132225 | 79 | 156 | 4.0 | 7.0 | 0.00 | 0.00 | 0.00 | 77 | 1014.8 |
| 20260901131751 | 78 | 154 | 4.0 | 7.0 | 0.00 | 0.00 | 0.00 | 78 | 1014.9 |
| 20260901131510 | 77 | 140 | 3.0 | 7.0 | 0.00 | 0.00 | 0.00 | 79 | 1012.2 |
| 20260901131304 | 77 | 171 | 4.0 | 8.0 | 0.00 | 0.00 | 0.00 | 79 | 1014.8 |
| 20260901130725 | 77 | 155 | 4.0 | 8.0 | 0.00 | 0.00 | 0.00 | 80 | 1014.8 |
| 20260901130237 | 76 | 159 | 5.0 | 8.0 | 0.00 | 0.00 | 0.00 | 81 | 1014.8 |
| 20260901130020 | 76 | 157 | 3.0 | 7.0 | 0.00 | 0.00 | 0.00 | 81 | 1012.2 |
| 20260901125722 | 76 | 164 | 4.0 | 7.0 | 0.00 | 0.00 | 0.00 | 82 | 1014.8 |
| 20260901125236 | 75 | 167 | 4.0 | 7.0 | 0.00 | 0.00 | 0.00 | 82 | 1014.6 |
| 20260901124750 | 75 | 163 | 5.0 | 7.0 | 0.00 | 0.00 | 0.00 | 82 | 1014.7 |
| 20260901124510 | 75 | 138 | 3.0 | 8.0 | 0.00 | 0.00 | 0.00 | 82 | 1012.0 |
| 20260901124239 | 75 | 140 | 4.0 | 8.0 | 0.00 | 0.00 | 0.00 | 82 | 1014.6 |
| 20260901123809 | 75 | 155 | 5.0 | 8.0 | 0.00 | 0.00 | 0.00 | 82 | 1014.5 |
| 20260901123231 | 75 | 155 | 5.0 | 8.0 | 0.00 | 0.00 | 0.00 | 82 | 1014.5 |
| 20260901123101 | 74 | 146 | 3.0 | 7.0 | 0.00 | 0.00 | 0.00 | 82 | 1011.8 |
| 20260901122743 | 75 | 159 | 4.0 | 8.0 | 0.00 | 0.00 | 0.00 | 82 | 1014.3 |
| 20260901122228 | 75 | 159 | 4.0 | 9.0 | 0.00 | 0.00 | 0.00 | 82 | 1014.4 |
| 20260901121801 | 75 | 153 | 6.0 | 9.0 | 0.00 | 0.00 | 0.00 | 82 | 1014.3 |
| 20260901121529 | 74 | 163 | 4.0 | 7.0 | 0.00 | 0.00 | 0.00 | 82 | 1011.7 |
| 20260901121227 | 75 | 175 | 4.0 | 7.0 | 0.00 | 0.00 | 0.00 | 82 | 1014.2 |
| 20260901120811 | 75 | 148 | 3.0 | 7.0 | 0.00 | 0.00 | 0.00 | 82 | 1014.2 |
| 20260901120233 | 75 | 140 | 5.0 | 7.0 | 0.00 | 0.00 | 0.00 | 82 | 1014.2 |
| 20260901120101 | 75 | 157 | 4.0 | 6.0 | 0.00 | 0.00 | 0.00 | 82 | 1011.5 |
| 20260901120002 | 75 | 156 | 3.0 | 5.0 | 0.00 | 0.00 | 0.00 | 82 | 1011.6 |
| 20260901115745 | 75 | 156 | 2.0 | 5.0 | 0.00 | 0.00 | 0.00 | 82 | 1014.2 |
| 20260901115230 | 75 | 156 | 3.0 | 5.0 | 0.00 | 0.00 | 0.00 | 82 | 1014.2 |
| 20260901114742 | 75 | 156 | 2.0 | 5.0 | 0.00 | 0.00 | 0.00 | 81 | 1014.2 |
| 20260901114509 | 75 | 156 | 1.0 | 5.0 | 0.00 | 0.00 | 0.00 | 81 | 1011.5 |
| 20260901114225 | 75 | 157 | 2.0 | 5.0 | 0.00 | 0.00 | 0.00 | 81 | 1014.2 |
| 20260901113729 | 75 | 156 | 3.0 | 5.0 | 0.00 | 0.00 | 0.00 | 81 | 1014.1 |
| 20260901113243 | 76 | 157 | 2.0 | 5.0 | 0.00 | 0.00 | 0.00 | 80 | 1014.2 |
| 20260901113058 | 75 | 156 | 1.0 | 5.0 | 0.00 | 0.00 | 0.00 | 80 | 1011.5 |
| 20260901112725 | 76 | 156 | 1.0 | 6.0 | 0.00 | 0.00 | 0.00 | 80 | 1014.2 |
| 20260901112237 | 76 | 156 | 2.0 | 6.0 | 0.00 | 0.00 | 0.00 | 81 | 1014.2 |
| 20260901111749 | 76 | 157 | 3.0 | 7.0 | 0.00 | 0.00 | 0.00 | 81 | 1014.2 |
| 20260901111600 | 75 | 156 | 2.0 | 8.0 | 0.00 | 0.00 | 0.00 | 81 | 1011.5 |
| 20260901111502 | 75 | 157 | 2.0 | 8.0 | 0.00 | 0.00 | 0.00 | 81 | 1011.5 |
| 20260901111234 | 76 | 157 | 3.0 | 8.0 | 0.00 | 0.00 | 0.00 | 81 | 1014.2 |
| 20260901110745 | 76 | 159 | 5.0 | 8.0 | 0.00 | 0.00 | 0.00 | 80 | 1014.2 |
| 20260901110229 | 76 | 198 | 5.0 | 7.0 | 0.00 | 0.00 | 0.00 | 80 | 1014.2 |
| 20260901110013 | 75 | 161 | 4.0 | 8.0 | 0.00 | 0.00 | 0.00 | 80 | 1011.5 |
| 20260901105740 | 76 | 163 | 4.0 | 8.0 | 0.00 | 0.00 | 0.00 | 80 | 1014.2 |
| 20260901105223 | 76 | 162 | 5.0 | 8.0 | 0.00 | 0.00 | 0.00 | 81 | 1014.2 |
| 20260901104732 | 76 | 197 | 4.0 | 7.0 | 0.00 | 0.00 | 0.00 | 82 | 1014.1 |
| 20260901104518 | 76 | 159 | 3.0 | 6.0 | 0.00 | 0.00 | 0.00 | 82 | 1011.5 |
| 20260901104305 | 76 | 160 | 3.0 | 5.0 | 0.00 | 0.00 | 0.00 | 82 | 1014.3 |
| 20260901103726 | 77 | 155 | 3.0 | 5.0 | 0.00 | 0.00 | 0.00 | 82 | 1014.2 |
| 20260901103240 | 77 | 155 | 2.0 | 5.0 | 0.00 | 0.00 | 0.00 | 82 | 1014.3 |
| 20260901103049 | 76 | 155 | 2.0 | 5.0 | 0.00 | 0.00 | 0.00 | 82 | 1011.7 |
| 20260901102724 | 77 | 155 | 3.0 | 5.0 | 0.00 | 0.00 | 0.00 | 82 | 1014.3 |
| 20260901102236 | 77 | 155 | 2.0 | 3.0 | 0.00 | 0.00 | 0.00 | 82 | 1014.3 |
| 20260901101747 | 77 | 155 | 3.0 | 3.0 | 0.00 | 0.00 | 0.00 | 82 | 1014.4 |
| 20260901101553 | 76 | 155 | 1.0 | 3.0 | 0.00 | 0.00 | 0.00 | 82 | 1011.7 |
| 20260901101231 | 77 | 155 | 1.0 | 3.0 | 0.00 | 0.00 | 0.00 | 82 | 1014.4 |
| 20260901100743 | 77 | 155 | 2.0 | 5.0 | 0.00 | 0.00 | 0.00 | 82 | 1014.5 |
| 20260901100225 | 77 | 155 | 2.0 | 3.0 | 0.00 | 0.00 | 0.00 | 81 | 1014.4 |
| 20260901100105 | 77 | 155 | 1.0 | 3.0 | 0.00 | 0.00 | 0.00 | 81 | 1011.8 |
| 20260901095736 | 77 | 155 | 2.0 | 5.0 | 0.00 | 0.00 | 0.00 | 81 | 1014.5 |
| 20260901095247 | 77 | 155 | 2.0 | 6.0 | 0.00 | 0.00 | 0.00 | 82 | 1014.5 |
| 20260901094732 | 77 | 155 | 3.0 | 8.0 | 0.00 | 0.00 | 0.00 | 82 | 1014.5 |
| 20260901094509 | 77 | 155 | 3.0 | 8.0 | 0.00 | 0.00 | 0.00 | 82 | 1011.9 |
| 20260901094246 | 77 | 154 | 4.0 | 8.0 | 0.00 | 0.00 | 0.00 | 82 | 1014.5 |
| 20260901093726 | 77 | 159 | 5.0 | 7.0 | 0.00 | 0.00 | 0.00 | 82 | 1014.5 |
| 20260901093237 | 77 | 155 | 3.0 | 4.0 | 0.00 | 0.00 | 0.00 | 83 | 1014.5 |
| 20260901093017 | 77 | 142 | 2.0 | 4.0 | 0.00 | 0.00 | 0.00 | 83 | 1011.8 |
| 20260901092750 | 77 | 142 | 2.0 | 4.0 | 0.00 | 0.00 | 0.00 | 83 | 1014.5 |
| 20260901092243 | 77 | 142 | 3.0 | 5.0 | 0.00 | 0.00 | 0.00 | 84 | 1014.5 |
| 20260901091725 | 77 | 142 | 4.0 | 5.0 | 0.00 | 0.00 | 0.00 | 84 | 1014.5 |
| 20260901091507 | 77 | 142 | 2.0 | 5.0 | 0.00 | 0.00 | 0.00 | 84 | 1011.9 |
| 20260901091239 | 77 | 129 | 3.0 | 5.0 | 0.00 | 0.00 | 0.00 | 84 | 1014.6 |
| 20260901090751 | 77 | 129 | 3.0 | 5.0 | 0.00 | 0.00 | 0.00 | 84 | 1014.6 |
| 20260901090257 | 77 | 129 | 3.0 | 5.0 | 0.00 | 0.00 | 0.00 | 84 | 1014.6 |
| 20260901090040 | 77 | 142 | 3.0 | 4.0 | 0.00 | 0.00 | 0.00 | 84 | 1011.9 |
| 20260901085747 | 77 | 128 | 3.0 | 4.0 | 0.00 | 0.00 | 0.00 | 84 | 1014.6 |
| 20260901085232 | 77 | 128 | 3.0 | 4.0 | 0.00 | 0.00 | 0.00 | 85 | 1014.5 |
| 20260901084744 | 77 | 128 | 3.0 | 4.0 | 0.00 | 0.00 | 0.00 | 85 | 1014.5 |
| 20260901084527 | 77 | 128 | 2.0 | 6.0 | 0.00 | 0.00 | 0.00 | 85 | 1011.8 |
| 20260901084233 | 77 | 128 | 2.0 | 6.0 | 0.00 | 0.00 | 0.00 | 85 | 1014.5 |
| 20260901083745 | 77 | 128 | 3.0 | 7.0 | 0.00 | 0.00 | 0.00 | 85 | 1014.5 |
| 20260901083235 | 77 | 111 | 4.0 | 6.0 | 0.00 | 0.00 | 0.00 | 85 | 1014.4 |
| 20260901083013 | 76 | 123 | 3.0 | 6.0 | 0.00 | 0.00 | 0.00 | 85 | 1011.7 |
| 20260901082742 | 77 | 117 | 3.0 | 4.0 | 0.00 | 0.00 | 0.00 | 85 | 1014.4 |
| 20260901082227 | 77 | 110 | 3.0 | 4.0 | 0.00 | 0.00 | 0.00 | 85 | 1014.4 |
| 20260901081740 | 77 | 110 | 2.0 | 4.0 | 0.00 | 0.00 | 0.00 | 85 | 1014.4 |
| 20260901081515 | 77 | 110 | 2.0 | 4.0 | 0.00 | 0.00 | 0.00 | 85 | 1011.7 |
| 20260901081235 | 77 | 110 | 2.0 | 5.0 | 0.00 | 0.00 | 0.00 | 85 | 1014.4 |
| 20260901080747 | 77 | 115 | 3.0 | 5.0 | 0.00 | 0.00 | 0.00 | 85 | 1014.4 |
| 20260901080233 | 77 | 110 | 3.0 | 6.0 | 0.00 | 0.00 | 0.00 | 85 | 1014.4 |
| 20260901080059 | 77 | 112 | 3.0 | 4.0 | 0.00 | 0.00 | 0.00 | 85 | 1011.7 |
| 20260901075747 | 77 | 128 | 3.0 | 4.0 | 0.00 | 0.00 | 0.00 | 85 | 1014.5 |
| 20260901075230 | 77 | 128 | 2.0 | 3.0 | 0.00 | 0.00 | 0.00 | 85 | 1014.4 |
| 20260901074738 | 77 | 128 | 3.0 | 4.0 | 0.00 | 0.00 | 0.00 | 85 | 1014.5 |
| 20260901074601 | 77 | 128 | 2.0 | 4.0 | 0.00 | 0.00 | 0.00 | 85 | 1011.8 |
| 20260901074252 | 77 | 128 | 2.0 | 6.0 | 0.00 | 0.00 | 0.00 | 85 | 1014.4 |
| 20260901073742 | 77 | 128 | 3.0 | 7.0 | 0.00 | 0.00 | 0.00 | 85 | 1014.4 |
| 20260901073225 | 77 | 116 | 4.0 | 7.0 | 0.00 | 0.00 | 0.00 | 84 | 1014.4 |
| 20260901073046 | 77 | 116 | 2.0 | 5.0 | 0.00 | 0.00 | 0.00 | 84 | 1011.7 |
| 20260901072737 | 78 | 113 | 3.0 | 5.0 | 0.00 | 0.00 | 0.00 | 84 | 1014.5 |
| 20260901072309 | 78 | 94 | 3.0 | 5.0 | 0.00 | 0.00 | 0.00 | 84 | 1014.4 |
| 20260901071731 | 78 | 58 | 1.0 | 3.0 | 0.00 | 0.00 | 0.00 | 83 | 1014.5 |
| 20260901071528 | 77 | 58 | 2.0 | 4.0 | 0.00 | 0.00 | 0.00 | 83 | 1011.9 |
| 20260901071243 | 78 | 58 | 2.0 | 4.0 | 0.00 | 0.00 | 0.00 | 83 | 1014.5 |
| 20260901070751 | 78 | 58 | 2.0 | 4.0 | 0.00 | 0.00 | 0.00 | 83 | 1014.5 |
| 20260901070242 | 78 | 58 | 2.0 | 4.0 | 0.00 | 0.00 | 0.00 | 82 | 1014.6 |
| 20260901070104 | 78 | 58 | 2.0 | 4.0 | 0.00 | 0.00 | 0.00 | 82 | 1011.9 |
| 20260901070001 | 78 | 58 | 2.0 | 3.0 | 0.00 | 0.00 | 0.00 | 82 | 1011.8 |
| 20260901065727 | 78 | 58 | 2.0 | 3.0 | 0.00 | 0.00 | 0.00 | 82 | 1014.6 |
| 20260901065238 | 79 | 58 | 2.0 | 4.0 | 0.00 | 0.00 | 0.00 | 82 | 1014.5 |
| 20260901064750 | 79 | 58 | 2.0 | 4.0 | 0.00 | 0.00 | 0.00 | 82 | 1014.5 |
| 20260901064547 | 78 | 58 | 2.0 | 4.0 | 0.00 | 0.00 | 0.00 | 82 | 1011.8 |
| 20260901064244 | 79 | 54 | 2.0 | 5.0 | 0.00 | 0.00 | 0.00 | 82 | 1014.5 |
| 20260901063723 | 79 | 54 | 1.0 | 5.0 | 0.00 | 0.00 | 0.00 | 82 | 1014.5 |
| 20260901063236 | 79 | 59 | 2.0 | 6.0 | 0.00 | 0.00 | 0.00 | 82 | 1014.4 |
| 20260901063056 | 79 | 61 | 2.0 | 6.0 | 0.00 | 0.00 | 0.00 | 82 | 1011.8 |
| 20260901062747 | 79 | 55 | 3.0 | 6.0 | 0.00 | 0.00 | 0.00 | 82 | 1014.5 |
| 20260901062231 | 79 | 59 | 4.0 | 7.0 | 0.00 | 0.00 | 0.00 | 82 | 1014.5 |
| 20260901061745 | 80 | 64 | 3.0 | 5.0 | 0.00 | 0.00 | 0.00 | 81 | 1014.6 |
| 20260901061547 | 79 | 64 | 3.0 | 5.0 | 0.00 | 0.00 | 0.00 | 81 | 1012.0 |
| 20260901061231 | 80 | 63 | 3.0 | 6.0 | 0.00 | 0.00 | 0.00 | 81 | 1014.6 |
| 20260901060742 | 80 | 66 | 2.0 | 6.0 | 0.00 | 0.00 | 0.00 | 81 | 1014.7 |
| 20260901060227 | 80 | 65 | 3.0 | 5.0 | 0.00 | 0.00 | 0.00 | 81 | 1014.7 |
| 20260901060054 | 79 | 91 | 2.0 | 5.0 | 0.00 | 0.00 | 0.00 | 81 | 1012.1 |
| 20260901055737 | 80 | 97 | 3.0 | 5.0 | 0.00 | 0.00 | 0.00 | 81 | 1014.8 |
| 20260901055250 | 80 | 94 | 3.0 | 6.0 | 0.00 | 0.00 | 0.00 | 82 | 1014.7 |
| 20260901054734 | 80 | 92 | 3.0 | 7.0 | 0.00 | 0.00 | 0.00 | 82 | 1014.7 |
| 20260901054558 | 79 | 116 | 3.0 | 7.0 | 0.00 | 0.00 | 0.00 | 82 | 1012.0 |
| 20260901054248 | 80 | 96 | 4.0 | 7.0 | 0.00 | 0.00 | 0.00 | 82 | 1014.7 |
| 20260901053730 | 79 | 95 | 4.0 | 6.0 | 0.00 | 0.00 | 0.00 | 82 | 1014.7 |
| 20260901053242 | 79 | 88 | 3.0 | 6.0 | 0.00 | 0.00 | 0.00 | 82 | 1014.7 |
| 20260901053000 | 79 | 101 | 2.0 | 6.0 | 0.00 | 0.00 | 0.00 | 82 | 1012.0 |
| 20260901052727 | 79 | 111 | 2.0 | 6.0 | 0.00 | 0.00 | 0.00 | 82 | 1014.8 |
| 20260901052239 | 80 | 111 | 2.0 | 6.0 | 0.00 | 0.00 | 0.00 | 82 | 1014.9 |
| 20260901051721 | 80 | 84 | 3.0 | 6.0 | 0.00 | 0.00 | 0.00 | 82 | 1014.8 |
| 20260901051513 | 79 | 93 | 2.0 | 4.0 | 0.00 | 0.00 | 0.00 | 81 | 1012.2 |
| 20260901051231 | 80 | 93 | 2.0 | 4.0 | 0.00 | 0.00 | 0.00 | 81 | 1014.9 |
| 20260901050740 | 80 | 65 | 0.0 | 2.0 | 0.00 | 0.00 | 0.00 | 80 | 1014.9 |
| 20260901050226 | 80 | 65 | 0.0 | 2.0 | 0.00 | 0.00 | 0.00 | 80 | 1014.9 |
| 20260901050019 | 80 | 65 | 0.0 | 2.0 | 0.00 | 0.00 | 0.00 | 80 | 1012.2 |
| 20260901045738 | 80 | 65 | 0.0 | 0.0 | 0.00 | 0.00 | 0.00 | 80 | 1014.9 |
| 20260901045222 | 80 | 65 | 0.0 | 3.0 | 0.00 | 0.00 | 0.00 | 80 | 1014.9 |
| 20260901044733 | 80 | 65 | 1.0 | 3.0 | 0.00 | 0.00 | 0.00 | 79 | 1014.8 |
| 20260901044514 | 80 | 65 | 1.0 | 2.0 | 0.00 | 0.00 | 0.00 | 79 | 1012.1 |
| 20260901044248 | 81 | 65 | 1.0 | 2.0 | 0.00 | 0.00 | 0.00 | 79 | 1014.8 |
| 20260901043731 | 81 | 65 | 1.0 | 2.0 | 0.00 | 0.00 | 0.00 | 78 | 1014.8 |
| 20260901043239 | 81 | 65 | 1.0 | 2.0 | 0.00 | 0.00 | 0.00 | 78 | 1014.8 |
| 20260901043014 | 80 | 65 | 1.0 | 2.0 | 0.00 | 0.00 | 0.00 | 78 | 1012.0 |
| 20260901042722 | 81 | 65 | 1.0 | 2.0 | 0.00 | 0.00 | 0.00 | 78 | 1014.7 |
| 20260901042233 | 81 | 65 | 1.0 | 2.0 | 0.00 | 0.00 | 0.00 | 77 | 1014.7 |
| 20260901041743 | 81 | 65 | 1.0 | 2.0 | 0.00 | 0.00 | 0.00 | 77 | 1014.8 |
| 20260901041520 | 81 | 65 | 0.0 | 2.0 | 0.00 | 0.00 | 0.00 | 77 | 1012.1 |
| 20260901041227 | 81 | 65 | 2.0 | 2.0 | 0.00 | 0.00 | 0.00 | 77 | 1014.8 |
| 20260901040755 | 82 | 65 | 1.0 | 2.0 | 0.00 | 0.00 | 0.00 | 77 | 1014.8 |
| 20260901040245 | 82 | 65 | 1.0 | 2.0 | 0.00 | 0.00 | 0.00 | 76 | 1014.8 |
| 20260901040044 | 81 | 65 | 0.0 | 2.0 | 0.00 | 0.00 | 0.00 | 76 | 1012.1 |
| 20260901035731 | 82 | 65 | 0.0 | 1.0 | 0.00 | 0.00 | 0.00 | 76 | 1014.8 |
| 20260901035243 | 82 | 65 | 0.0 | 2.0 | 0.00 | 0.00 | 0.00 | 76 | 1014.8 |
| 20260901034727 | 82 | 65 | 1.0 | 2.0 | 0.00 | 0.00 | 0.00 | 76 | 1014.7 |
| 20260901034550 | 82 | 65 | 0.0 | 2.0 | 0.00 | 0.00 | 0.00 | 75 | 1011.9 |
| 20260901034239 | 82 | 65 | 1.0 | 3.0 | 0.00 | 0.00 | 0.00 | 76 | 1014.6 |
| 20260901033731 | 83 | 65 | 1.0 | 3.0 | 0.00 | 0.00 | 0.00 | 75 | 1014.6 |
| 20260901033245 | 83 | 65 | 2.0 | 3.0 | 0.00 | 0.00 | 0.00 | 75 | 1014.6 |
| 20260901033044 | 82 | 65 | 0.0 | 3.0 | 0.00 | 0.00 | 0.00 | 75 | 1011.9 |
| 20260901032728 | 83 | 65 | 2.0 | 3.0 | 0.00 | 0.00 | 0.00 | 75 | 1014.6 |
| 20260901032255 | 83 | 65 | 2.0 | 3.0 | 0.00 | 0.00 | 0.00 | 75 | 1014.5 |
| 20260901031747 | 83 | 65 | 2.0 | 4.0 | 0.00 | 0.00 | 0.00 | 75 | 1014.5 |
| 20260901031528 | 83 | 65 | 2.0 | 4.0 | 0.00 | 0.00 | 0.00 | 75 | 1011.7 |
| 20260901031230 | 83 | 65 | 2.0 | 4.0 | 0.00 | 0.00 | 0.00 | 75 | 1014.4 |
| 20260901030741 | 83 | 65 | 2.0 | 4.0 | 0.00 | 0.00 | 0.00 | 75 | 1014.4 |
| 20260901030226 | 84 | 66 | 3.0 | 4.0 | 0.00 | 0.00 | 0.00 | 75 | 1014.5 |
| 20260901030034 | 83 | 66 | 2.0 | 4.0 | 0.00 | 0.00 | 0.00 | 75 | 1011.7 |
| 20260901025737 | 84 | 71 | 2.0 | 4.0 | 0.00 | 0.00 | 0.00 | 74 | 1014.5 |
| 20260901025249 | 84 | 71 | 3.0 | 5.0 | 0.00 | 0.00 | 0.00 | 74 | 1014.4 |
| 20260901024731 | 84 | 87 | 3.0 | 7.0 | 0.00 | 0.00 | 0.00 | 74 | 1014.3 |
| 20260901024531 | 83 | 73 | 2.0 | 7.0 | 0.00 | 0.00 | 0.00 | 73 | 1011.5 |
| 20260901024301 | 84 | 92 | 3.0 | 7.0 | 0.00 | 0.00 | 0.00 | 73 | 1014.3 |
| 20260901023722 | 84 | 94 | 4.0 | 7.0 | 0.00 | 0.00 | 0.00 | 73 | 1014.3 |
| 20260901023233 | 84 | 90 | 4.0 | 7.0 | 0.00 | 0.00 | 0.00 | 73 | 1014.2 |
| 20260901023011 | 84 | 87 | 3.0 | 6.0 | 0.00 | 0.00 | 0.00 | 73 | 1011.4 |
| 20260901022744 | 84 | 92 | 3.0 | 6.0 | 0.00 | 0.00 | 0.00 | 73 | 1014.2 |
| 20260901022226 | 85 | 99 | 3.0 | 6.0 | 0.00 | 0.00 | 0.00 | 72 | 1014.2 |
| 20260901021736 | 85 | 99 | 3.0 | 6.0 | 0.00 | 0.00 | 0.00 | 72 | 1014.1 |
| 20260901021558 | 84 | 99 | 3.0 | 6.0 | 0.00 | 0.00 | 0.00 | 72 | 1011.4 |
| 20260901021249 | 85 | 99 | 3.0 | 4.0 | 0.00 | 0.00 | 0.00 | 72 | 1014.1 |
| 20260901020727 | 85 | 99 | 3.0 | 4.0 | 0.00 | 0.00 | 0.00 | 71 | 1014.0 |
| 20260901020240 | 86 | 75 | 2.0 | 4.0 | 0.00 | 0.00 | 0.00 | 71 | 1014.0 |
| 20260901020007 | 85 | 96 | 2.0 | 4.0 | 0.00 | 0.00 | 0.00 | 70 | 1011.2 |
| 20260901015723 | 86 | 96 | 3.0 | 4.0 | 0.00 | 0.00 | 0.00 | 70 | 1013.9 |
| 20260901015234 | 86 | 99 | 2.0 | 3.0 | 0.00 | 0.00 | 0.00 | 69 | 1013.9 |
| 20260901014746 | 86 | 99 | 2.0 | 4.0 | 0.00 | 0.00 | 0.00 | 69 | 1013.9 |
| 20260901014516 | 86 | 99 | 1.0 | 4.0 | 0.00 | 0.00 | 0.00 | 68 | 1011.1 |
| 20260901014231 | 87 | 99 | 2.0 | 4.0 | 0.00 | 0.00 | 0.00 | 68 | 1013.9 |
| 20260901013743 | 87 | 216 | 2.0 | 3.0 | 0.00 | 0.00 | 0.00 | 68 | 1013.8 |
| 20260901013225 | 87 | 216 | 2.0 | 3.0 | 0.00 | 0.00 | 0.00 | 68 | 1013.7 |
| 20260901013010 | 87 | 216 | 2.0 | 3.0 | 0.00 | 0.00 | 0.00 | 67 | 1010.9 |
| 20260901012752 | 87 | 216 | 2.0 | 3.0 | 0.00 | 0.00 | 0.00 | 67 | 1013.7 |
| 20260901012243 | 87 | 216 | 2.0 | 2.0 | 0.00 | 0.00 | 0.00 | 67 | 1013.7 |
| 20260901011733 | 88 | 216 | 1.0 | 2.0 | 0.00 | 0.00 | 0.00 | 66 | 1013.8 |
| 20260901011531 | 87 | 216 | 0.0 | 2.0 | 0.00 | 0.00 | 0.00 | 66 | 1011.0 |
| 20260901011308 | 88 | 216 | 1.0 | 1.0 | 0.00 | 0.00 | 0.00 | 65 | 1013.8 |
| 20260901010728 | 88 | 216 | 1.0 | 1.0 | 0.00 | 0.00 | 0.00 | 65 | 1013.9 |
| 20260901010239 | 88 | 216 | 0.0 | 1.0 | 0.00 | 0.00 | 0.00 | 65 | 1013.8 |
| 20260901010013 | 88 | 216 | 0.0 | 1.0 | 0.00 | 0.00 | 0.00 | 65 | 1011.0 |
| 20260901005722 | 88 | 216 | 0.0 | 1.0 | 0.00 | 0.00 | 0.00 | 65 | 1013.8 |
| 20260901005249 | 89 | 216 | 0.0 | 2.0 | 0.00 | 0.00 | 0.00 | 65 | 1013.9 |
| 20260901004731 | 89 | 216 | 1.0 | 2.0 | 0.00 | 0.00 | 0.00 | 65 | 1013.9 |
| 20260901004528 | 88 | 216 | 1.0 | 2.0 | 0.00 | 0.00 | 0.00 | 65 | 1011.0 |
| 20260901004243 | 89 | 216 | 1.0 | 2.0 | 0.00 | 0.00 | 0.00 | 65 | 1013.9 |
| 20260901003724 | 89 | 216 | 1.0 | 2.0 | 0.00 | 0.00 | 0.00 | 65 | 1013.9 |
| 20260901003235 | 89 | 216 | 1.0 | 2.0 | 0.00 | 0.00 | 0.00 | 65 | 1013.9 |
| 20260901003023 | 89 | 216 | 0.0 | 2.0 | 0.00 | 0.00 | 0.00 | 65 | 1011.0 |
| 20260901002746 | 90 | 216 | 0.0 | 3.0 | 0.00 | 0.00 | 0.00 | 65 | 1013.9 |
| 20260901002236 | 90 | 216 | 1.0 | 3.0 | 0.00 | 0.00 | 0.00 | 65 | 1014.0 |
| 20260901001743 | 90 | 216 | 2.0 | 2.0 | 0.00 | 0.00 | 0.00 | 64 | 1014.0 |
| 20260901001600 | 90 | 216 | 0.0 | 1.0 | 0.00 | 0.00 | 0.00 | 63 | 1011.1 |
| 20260901001226 | 90 | 216 | 0.0 | 0.0 | 0.00 | 0.00 | 0.00 | 62 | 1013.9 |
| 20260901000734 | 90 | 216 | 0.0 | 0.0 | 0.00 | 0.00 | 0.00 | 62 | 1014.0 |
| 20260901000245 | 90 | 216 | 0.0 | 2.0 | 0.00 | 0.00 | 0.00 | 62 | 1014.0 |
| 20260901000058 | 90 | 216 | 0.0 | 2.0 | 0.00 | 0.00 | 0.00 | 62 | 1011.2 |
| 20260831235727 | 91 | 216 | 1.0 | 2.0 | 0.00 | 0.00 | 0.00 | 62 | 1014.0 |
| 20260831235240 | 91 | 216 | 0.0 | 2.0 | 0.00 | 0.00 | 0.00 | 62 | 1014.0 |
| 20260831234723 | 91 | 216 | 1.0 | 3.0 | 0.00 | 0.00 | 0.00 | 61 | 1014.0 |
| 20260831234504 | 91 | 216 | 1.0 | 3.0 | 0.00 | 0.00 | 0.00 | 61 | 1011.1 |
| 20260831234311 | 92 | 216 | 1.0 | 3.0 | 0.00 | 0.00 | 0.00 | 61 | 1014.0 |
| 20260831233732 | 92 | 216 | 1.0 | 3.0 | 0.00 | 0.00 | 0.00 | 60 | 1014.0 |
| 20260831233243 | 92 | 216 | 1.0 | 2.0 | 0.00 | 0.00 | 0.00 | 60 | 1014.1 |
| 20260831233031 | 92 | 216 | 1.0 | 2.0 | 0.00 | 0.00 | 0.00 | 60 | 1011.2 |
| 20260831232726 | 92 | 216 | 1.0 | 2.0 | 0.00 | 0.00 | 0.00 | 61 | 1014.1 |
| 20260831232259 | 93 | 216 | 1.0 | 2.0 | 0.00 | 0.00 | 0.00 | 60 | 1014.1 |
| 20260831231721 | 93 | 216 | 2.0 | 4.0 | 0.00 | 0.00 | 0.00 | 59 | 1014.1 |
| 20260831231505 | 92 | 216 | 1.0 | 4.0 | 0.00 | 0.00 | 0.00 | 59 | 1011.2 |
| 20260831231234 | 93 | 216 | 2.0 | 4.0 | 0.00 | 0.00 | 0.00 | 60 | 1014.1 |
| 20260831230738 | 93 | 216 | 3.0 | 4.0 | 0.00 | 0.00 | 0.00 | 59 | 1014.1 |
| 20260831230221 | 93 | 216 | 1.0 | 4.0 | 0.00 | 0.00 | 0.00 | 61 | 1014.1 |
| 20260831230010 | 93 | 216 | 1.0 | 5.0 | 0.00 | 0.00 | 0.00 | 60 | 1011.2 |
| 20260831225733 | 93 | 216 | 3.0 | 5.0 | 0.00 | 0.00 | 0.00 | 59 | 1014.1 |
| 20260831225245 | 93 | 216 | 3.0 | 5.0 | 0.00 | 0.00 | 0.00 | 59 | 1014.1 |
| 20260831224736 | 93 | 216 | 2.0 | 4.0 | 0.00 | 0.00 | 0.00 | 62 | 1014.1 |
| 20260831224553 | 93 | 216 | 1.0 | 4.0 | 0.00 | 0.00 | 0.00 | 62 | 1011.2 |
| 20260831224248 | 93 | 216 | 2.0 | 4.0 | 0.00 | 0.00 | 0.00 | 62 | 1014.1 |
| 20260831223729 | 93 | 216 | 3.0 | 5.0 | 0.00 | 0.00 | 0.00 | 60 | 1014.1 |
| 20260831223240 | 92 | 216 | 3.0 | 6.0 | 0.00 | 0.00 | 0.00 | 60 | 1014.1 |
| 20260831223056 | 92 | 216 | 3.0 | 6.0 | 0.00 | 0.00 | 0.00 | 60 | 1011.2 |
| 20260831222747 | 92 | 216 | 3.0 | 6.0 | 0.00 | 0.00 | 0.00 | 61 | 1014.2 |
| 20260831222230 | 92 | 252 | 3.0 | 7.0 | 0.00 | 0.00 | 0.00 | 62 | 1014.2 |
| 20260831221800 | 92 | 252 | 2.0 | 7.0 | 0.00 | 0.00 | 0.00 | 62 | 1014.2 |
| 20260831221543 | 91 | 252 | 3.0 | 7.0 | 0.00 | 0.00 | 0.00 | 63 | 1011.3 |
| 20260831221250 | 92 | 252 | 4.0 | 7.0 | 0.00 | 0.00 | 0.00 | 63 | 1014.1 |
| 20260831220731 | 92 | 248 | 4.0 | 5.0 | 0.00 | 0.00 | 0.00 | 65 | 1014.2 |
| 20260831220242 | 91 | 248 | 4.0 | 5.0 | 0.00 | 0.00 | 0.00 | 64 | 1014.2 |
| 20260831220039 | 91 | 248 | 3.0 | 5.0 | 0.00 | 0.00 | 0.00 | 63 | 1011.3 |
| 20260831215724 | 91 | 248 | 3.0 | 7.0 | 0.00 | 0.00 | 0.00 | 62 | 1014.2 |
| 20260831215249 | 91 | 248 | 3.0 | 7.0 | 0.00 | 0.00 | 0.00 | 63 | 1014.2 |
| 20260831214733 | 91 | 263 | 4.0 | 7.0 | 0.00 | 0.00 | 0.00 | 64 | 1014.2 |
| 20260831214532 | 90 | 252 | 3.0 | 7.0 | 0.00 | 0.00 | 0.00 | 65 | 1011.3 |
| 20260831214306 | 91 | 252 | 4.0 | 7.0 | 0.00 | 0.00 | 0.00 | 63 | 1014.2 |
| 20260831213728 | 91 | 229 | 5.0 | 8.0 | 0.00 | 0.00 | 0.00 | 63 | 1014.2 |
| 20260831213239 | 90 | 225 | 7.0 | 9.0 | 0.00 | 0.00 | 0.00 | 63 | 1014.3 |
| 20260831213052 | 90 | 252 | 6.0 | 9.0 | 0.00 | 0.00 | 0.00 | 63 | 1011.4 |
| 20260831212723 | 90 | 236 | 6.0 | 10.0 | 0.00 | 0.00 | 0.00 | 64 | 1014.3 |
| 20260831212235 | 90 | 221 | 6.0 | 10.0 | 0.00 | 0.00 | 0.00 | 65 | 1014.4 |
| 20260831211744 | 90 | 220 | 6.0 | 10.0 | 0.00 | 0.00 | 0.00 | 64 | 1014.3 |
| 20260831211511 | 90 | 214 | 5.0 | 10.0 | 0.00 | 0.00 | 0.00 | 63 | 1011.5 |
| 20260831211228 | 90 | 219 | 7.0 | 10.0 | 0.00 | 0.00 | 0.00 | 65 | 1014.4 |
| 20260831210738 | 90 | 233 | 6.0 | 9.0 | 0.00 | 0.00 | 0.00 | 64 | 1014.4 |
| 20260831210249 | 91 | 211 | 6.0 | 9.0 | 0.00 | 0.00 | 0.00 | 63 | 1014.5 |
| 20260831210015 | 90 | 222 | 5.0 | 11.0 | 0.00 | 0.00 | 0.00 | 63 | 1011.5 |
| 20260831205731 | 91 | 202 | 5.0 | 11.0 | 0.00 | 0.00 | 0.00 | 62 | 1014.4 |
| 20260831205305 | 91 | 230 | 8.0 | 12.0 | 0.00 | 0.00 | 0.00 | 60 | 1014.4 |
| 20260831204752 | 91 | 217 | 8.0 | 12.0 | 0.00 | 0.00 | 0.00 | 62 | 1014.4 |
| 20260831204539 | 90 | 220 | 7.0 | 14.0 | 0.00 | 0.00 | 0.00 | 62 | 1011.6 |
| 20260831204241 | 91 | 215 | 9.0 | 15.0 | 0.00 | 0.00 | 0.00 | 64 | 1014.5 |
| 20260831203722 | 91 | 247 | 9.0 | 15.0 | 0.00 | 0.00 | 0.00 | 62 | 1014.6 |
| 20260831203254 | 91 | 245 | 9.0 | 14.0 | 0.00 | 0.00 | 0.00 | 63 | 1014.5 |
| 20260831203025 | 90 | 217 | 8.0 | 12.0 | 0.00 | 0.00 | 0.00 | 66 | 1011.7 |
| 20260831202743 | 90 | 254 | 9.0 | 12.0 | 0.00 | 0.00 | 0.00 | 67 | 1014.6 |
| 20260831202227 | 89 | 216 | 7.0 | 11.0 | 0.00 | 0.00 | 0.00 | 67 | 1014.6 |
| 20260831201759 | 89 | 242 | 6.0 | 14.0 | 0.00 | 0.00 | 0.00 | 66 | 1014.6 |
| 20260831201559 | 89 | 238 | 8.0 | 14.0 | 0.00 | 0.00 | 0.00 | 66 | 1011.8 |
| 20260831201513 | 89 | 241 | 8.0 | 14.0 | 0.00 | 0.00 | 0.00 | 66 | 1011.8 |
| 20260831201222 | 89 | 236 | 9.0 | 11.0 | 0.00 | 0.00 | 0.00 | 69 | 1014.6 |
| 20260831200747 | 89 | 232 | 6.0 | 12.0 | 0.00 | 0.00 | 0.00 | 67 | 1014.7 |
| 20260831200238 | 88 | 242 | 7.0 | 10.0 | 0.00 | 0.00 | 0.00 | 69 | 1014.7 |
| 20260831200047 | 88 | 237 | 5.0 | 10.0 | 0.00 | 0.00 | 0.00 | 70 | 1011.8 |
| 20260831195749 | 88 | 245 | 7.0 | 10.0 | 0.00 | 0.00 | 0.00 | 68 | 1014.7 |
| 20260831195240 | 88 | 211 | 6.0 | 9.0 | 0.00 | 0.00 | 0.00 | 69 | 1014.6 |
| 20260831194722 | 88 | 228 | 6.0 | 10.0 | 0.00 | 0.00 | 0.00 | 68 | 1014.7 |
| 20260831194531 | 88 | 233 | 5.0 | 10.0 | 0.00 | 0.00 | 0.00 | 69 | 1011.9 |
| 20260831194234 | 88 | 233 | 7.0 | 10.0 | 0.00 | 0.00 | 0.00 | 68 | 1014.7 |
| 20260831193740 | 88 | 238 | 6.0 | 11.0 | 0.00 | 0.00 | 0.00 | 66 | 1014.8 |
| 20260831193222 | 88 | 237 | 8.0 | 11.0 | 0.00 | 0.00 | 0.00 | 66 | 1014.7 |
| 20260831193036 | 88 | 240 | 5.0 | 9.0 | 0.00 | 0.00 | 0.00 | 66 | 1011.9 |
| 20260831192734 | 89 | 229 | 6.0 | 8.0 | 0.00 | 0.00 | 0.00 | 67 | 1014.7 |